User: anonymous   Login
Location: Unspecified
(0.0000°N, 0.0000°E)
Time: 10:55:43
(UTC+01:00)
Language:

Cosmos 773 Rocket - Orbit

View from above orbital plane
View from above orbital plane
View from above satellite
View from above satellite

Ground track
Ground track

The orbit data is extracted from the following two-line orbital elements,

1 08344U 75094B   16341.84471598 -.00000005  00000-0  69041-5 0  9996
2 08344  74.0563 120.0442 0020858  68.2261 292.1110 14.39075035158015
Epoch (UTC): 06 December 2016 20:16:23
Eccentricity: 0.0020858
inclination: 74.0563°
perigee height: 746 km
apogee height: 776 km
right ascension of ascending node: 120.0442°
argument of perigee: 68.2261°
revolutions per day: 14.39075035
mean anomaly at epoch: 292.1110°
orbit number at epoch: 15801

The dashed part of the orbit path shows where the satellite is in the earth's shadow,  

DLR